TimeCDT,TemperatureF,Dew PointF,Humidity,Sea Level PressureIn,VisibilityMPH,Wind Direction,Wind SpeedMPH,Gust SpeedMPH,PrecipitationIn,Events,Conditions,WindDirDegrees,DateUTC
12:53 AM,5.0,-0.0,80,30.10,10.0,Calm,Calm,-,N/A,,Clear,0,2013-03-22 05:53:00
1:53 AM,1.9,-2.0,83,30.11,10.0,Calm,Calm,-,N/A,,Clear,0,2013-03-22 06:53:00
2:53 AM,1.9,-2.9,80,30.12,10.0,Calm,Calm,-,N/A,,Clear,0,2013-03-22 07:53:00
3:53 AM,-0.0,-5.1,79,30.12,10.0,Calm,Calm,-,N/A,,Clear,0,2013-03-22 08:53:00
4:53 AM,-0.9,-7.1,75,30.12,10.0,Calm,Calm,-,N/A,,Clear,0,2013-03-22 09:53:00
5:53 AM,-2.9,-8.0,79,30.11,10.0,Calm,Calm,-,N/A,,Clear,0,2013-03-22 10:53:00
6:53 AM,-4.0,-9.9,76,30.12,10.0,Calm,Calm,-,N/A,,Clear,0,2013-03-22 11:53:00
7:53 AM,-0.0,-6.0,76,30.13,10.0,Calm,Calm,-,N/A,,Clear,0,2013-03-22 12:53:00
8:53 AM,8.1,3.0,80,30.12,10.0,Calm,Calm,-,N/A,,Clear,0,2013-03-22 13:53:00
9:53 AM,21.9,12.0,66,30.11,10.0,Calm,Calm,-,N/A,,Clear,0,2013-03-22 14:53:00
10:53 AM,30.0,12.9,49,30.09,10.0,NE,4.6,-,N/A,,Clear,50,2013-03-22 15:53:00
11:53 AM,30.9,10.9,43,30.09,10.0,ENE,4.6,-,N/A,,Clear,60,2013-03-22 16:53:00
12:53 PM,33.1,12.9,43,30.08,10.0,Variable,4.6,-,N/A,,Clear,0,2013-03-22 17:53:00
1:53 PM,35.1,14.0,42,30.07,10.0,Variable,5.8,-,N/A,,Overcast,0,2013-03-22 18:53:00
2:53 PM,35.1,15.1,44,30.06,10.0,NE,3.5,-,N/A,,Mostly Cloudy,40,2013-03-22 19:53:00
3:53 PM,35.1,15.1,44,30.06,10.0,NNE,3.5,-,N/A,,Partly Cloudy,20,2013-03-22 20:53:00
4:53 PM,34.0,16.0,48,30.07,10.0,Calm,Calm,-,N/A,,Clear,0,2013-03-22 21:53:00
5:53 PM,35.1,16.0,46,30.09,10.0,Variable,5.8,-,N/A,,Clear,0,2013-03-22 22:53:00
6:53 PM,30.0,18.0,61,30.11,10.0,ENE,8.1,-,N/A,,Clear,60,2013-03-22 23:53:00
7:53 PM,28.0,18.0,66,30.12,10.0,NE,3.5,-,N/A,,Clear,40,2013-03-23 00:53:00
8:53 PM,24.1,18.0,77,30.12,10.0,Calm,Calm,-,N/A,,Clear,0,2013-03-23 01:53:00
9:53 PM,21.0,16.0,81,30.12,10.0,Calm,Calm,-,N/A,,Clear,0,2013-03-23 02:53:00
10:53 PM,16.0,12.0,84,30.12,10.0,Calm,Calm,-,N/A,,Clear,0,2013-03-23 03:53:00
11:53 PM,14.0,10.9,88,30.13,10.0,Calm,Calm,-,N/A,,Clear,0,2013-03-23 04:53:00